SCP
0 0 0 0 0 0 0 0 0 0 0 0 0 0 0 0 0 0 0 0 0 0 0 0 0 0 0 0 0 0 -0 -0 -0 0 -0 0 0 0 0 0 0 0 0 0 0 0 -0 -0 -0 0 0 0 0 0
0 0 0 0 0 0 0 0 0 0 0 0 0 0 0 0 0 0 0 0 0 0 0 0 0 0 0 0 0 0 0 -0 0 -0 -0 0 0 0 0 0 0 0 0 0 0 -0 0 -0 -0 0 0 0 0 0
0 0 0 0 0 0 0 0 0 0 0 0 0 0 0 0 0 0 0 0 0 0 0 0 0 0 0 0 0 0 0 -0 -0 -0 -0 -0 0 0 0 0 0 0 0 0 0 0 -0 -0 0 0 0 0 0 0
0 0 0 0 0 0 0 0 0 0 0 0 0 0 0 0 0 0 0 0 0 0 0 0 0 0 0 0 0 0 -0 -0 -0 -0 -0 -0 0 0 0 0 0 -0 -0 0 0 0 0 0 0 0 0 0 0 0
0 0 0 0 0 0 0 0 0 0 0 0 0 0 0 0 0 0 0 0 0 0 0 0 0 0 0 0 0 0 -0 -0 -0 0 0 0 0 0 0 0 -0 -0 -0 0 -0 -0 -0 0 0 0 0 0 0 0
0 0 0 0 0 0 0 0 0 0 0 0 0 0 0 0 0 0 0 0 0 0 0 0 0 0 0 0 0 0 0 0 0 0 0 0 0 0 0 0 0 0 0 0 0 -0 -0 -0 -0 -0 0 0 0 0
0 0 0 0 0 0 0 0 0 0 0 0 0 0 0 0 0 0 0 0 0 0 0 0 0 0 0 0 0 0 0 0 -0 0 0 0 0 0 0 0 0 0 0 0 0 -0 -0 -0 -0 -0 -0 -0 -0 -0
0 0 0 0 0 0 0 0 0 0 0 0 0 0 0 0 0 0 0 0 0 0 0 0 0 0 0 0 0 0 0 0 -0 0 0 0 0 0 0 0 0 0 -0 -0 0 0 -0 -0 -0 -0 -0 -0 -0 -0
0 0 0 0 0 0 0 0 0 0 0 0 0 0 0 0 0 0 0 0 0 0 0 0 0 0 0 0 0 0 0 0 -0 0 0 0 0 0 0 0 0 0 0 0 -0 0 0 0 0 -0 -0 -0 -0 0
0 0 0 0 0 0 0 0 0 0 0 0 0 0 0 0 0 0 0 0 0 0 0 0 0 0 0 0 0 0 0 0 0 0 0 0 0 -0 -0 -0 0 0 0 0 -0 0 0 0 0 0 0 0 0 -0
0 0 0 0 0 0 0 0 0 0 0 0 0 0 0 0 0 0 0 0 0 0 0 0 0 0 0 0 0 0 0 0 0 0 0 0 0 0 0 -0 -0 -0 -0 -0 0 -0 -0 -0 0 0 0 0 0 -0
0 0 0 0 0 0 0 0 0 0 0 0 0 0 0 0 0 0 0 0 0 0 0 0 0 0 0 0 0 0 0 0 0 0 0 0 0 0 0 0 -0 0 0 -0 -0 -0 0 0 -0 -0 -0 0 0 0
0 0 0 0 0 0 0 0 0 0 0 0 0 0 0 0 0 0 0 0 0 0 0 0 0 0 0 0 0 0 0 0 0 0 0 0 0 0 0 -0 -0 -0 -0 -0 -0 -0 -0 -0 -0 0 0 0 0 0
0 0 0 0 0 0 0 0 0 0 0 0 0 0 0 0 0 0 0 0 0 0 0 0 0 0 0 0 0 0 0 0 0 0 0 0 0 0 0 0 0 0 0 0 0 0 0 0 0 0 0 0 0 0
0 0 0 0 0 0 -0 0 0 0 0 0 0 0 0 0 0 0 0 0 0 0 0 0 0 0 0 0 0 0 0 0 0 -0 0 0 0 0 0 0 0 0 0 0 0 0 0 0 0 0 0 0 0 0
0 0 0 0 0 0 -0 0 0 0 0 0 0 0 0 0 0 0 0 0 0 0 0 0 0 0 0 0 0 0 0 0 0 0 0 0 0 0 0 0 0 0 0 0 0 0 0 0 0 0 0 0 0 0
0 0 0 0 0 0 -0 0 0 0 0 0 0 0 0 0 0 0 0 0 0 0 0 0 0 0 0 0 0 0 0 0 0 0 0 0 0 0 0 0 0 0 0 0 0 0 0 0 0 0 0 -0 0 0
0 0 0 0 -0 0 0 0 0 0 0 0 0 0 0 0 0 0 0 0 0 0 0 0 0 0 0 0 0 0 0 0 0 0 0 0 0 0 0 0 0 0 0 0 0 0 0 0 0 0 0 0 0 0
0 0 0 -0 0 0 0 0 0 0 0 0 0 0 0 0 0 0 0 0 0 0 0 0 0 0 0 0 0 0 0 0 0 0 0 0 0 0 0 0 -0 0 0 0 0 0 0 0 0 0 0 0 0 0
0 -0 -0 -0 0 0 0 0 0 0 0 0 0 0 0 0 0 0 0 0 0 0 0 0 0 0 0 0 0 0 0 0 0 0 0 0 0 0 0 0 0 0 0 0 0 0 0 0 0 0 0 0 0 0
0 0 -0 -0 0 0 0 0 0 0 0 0 0 0 0 0 0 0 0 0 0 0 0 0 0 0 0 0 0 0 0 0 0 0 0 0 0 0 0 0 0 0 0 0 0 0 0 0 0 0 0 0 0 0
0 0 0 0 0 0 0 0 0 0 0 0 0 0 0 0 0 0 0 0 0 0 0 0 0 0 0 0 0 0 0 0 0 0 0 0 0 0 0 0 0 0 0 0 0 0 0 0 0 0 0 0 0 0
0 0 0 0 0 0 0 0 0 0 0 0 0 0 0 0 0 0 0 0 0 0 0 0 0 0 0 0 0 0 0 0 0 0 0 0 0 0 0 0 0 0 0 0 0 0 0 0 0 0 0 0 0 0
0 0 0 0 0 0 0 0 0 0 0 0 0 0 0 0 0 0 0 0 0 0 0 0 0 0 0 0 0 0 0 0 0 0 0 0 0 0 0 0 0 0 0 0 0 0 0 0 0 0 0 0 0 0
0 0 0 0 0 0 0 0 0 0 0 0 0 0 0 0 0 0 0 0 0 0 0 0 0 0 0 0 0 0 0 0 0 0 0 0 0 0 0 0 0 0 0 0 0 0 0 0 0 0 0 0 0 0
0 0 0 0 0 0 0 0 0 0 0 0 0 0 0 0 0 0 0 0 0 0 0 0 0 0 0 0 0 0 0 0 0 0 0 0 0 0 0 0 0 0 0 0 0 0 0 0 0 0 0 0 0 0
0 0 0 0 0 0 0 0 0 0 0 0 0 0 0 0 0 0 0 0 0 0 0 0 0 0 0 0 0 0 0 0 0 0 0 0 0 0 0 0 0 0 0 0 0 0 0 0 0 0 0 0 0 0
-0 0 0 0 0 0 0 0 0 0 0 0 0 0 0 0 0 0 0 0 0 0 0 0 0 0 0 0 0 0 0 0 0 0 0 0 0 0 0 0 0 0 0 0 0 0 0 0 0 0 0 0 0 0
0 0 0 0 0 0 0 0 0 0 0 0 0 0 0 0 0 0 0 0 0 0 0 0 0 0 0 0 0 0 0 0 0 0 0 0 0 0 0 0 0 0 0 0 0 0 0 0 0 0 0 0 0 0
0 0 0 0 0 0 0 0 0 0 0 0 0 0 0 0 0 0 0 0 0 0 0 0 0 0 0 0 0 0 0 0 0 0 0 0 0 0 0 0 0 0 0 0 0 0 0 0 0 0 0 0 0 0
-0 0 0 0 0 0 0 0 0 0 0 0 0 0 0 0 0 0 0 0 0 0 0 0 0 0 0 0 0 0 0 0 0 0 0 0 0 0 0 0 0 0 0 0 0 0 0 0 0 0 0 0 0 0
0 0 0 0 0 0 0 0 0 0 0 0 0 0 0 0 0 0 0 0 0 0 0 0 0 0 0 0 0 0 0 0 0 0 0 0 0 0 0 0 0 0 0 0 0 0 0 0 0 0 0 0 0 0
-0 0 0 -0 -0 0 0 0 0 0 0 0 0 0 0 0 0 0 0 0 0 0 0 0 0 0 0 0 0 0 0 0 0 0 0 0 0 0 0 0 0 0 0 0 0 0 0 0 0 0 0 0 0 0
Wind_Speed_500mb
44 39 41 56 47 39 39 119 113 101 105 104 97 90 88 86 85 77 65 51 33 13 14 20 19 14 13 12 7 11 5 2 5 4 6 6 4 7 2 8 8 9 8 8 1 3 8 5 0 1 4 10 14 9
46 43 38 50 66 39 31 80 126 109 112 109 104 96 90 89 87 78 63 53 43 19 7 18 27 25 23 17 15 16 3 10 10 5 2 5 3 3 6 6 7 5 10 5 13 10 8 8 12 9 9 10 8 6
46 43 40 36 43 63 35 49 126 118 114 114 105 100 90 90 88 82 67 59 42 26 14 16 19 28 30 28 25 13 10 10 8 6 6 4 5 6 5 11 3 9 13 7 6 7 15 29 22 39 32 20 14 8
53 48 44 39 38 59 52 38 83 121 108 113 104 99 92 91 86 85 72 55 52 13 10 9 19 20 26 31 30 29 13 11 8 7 4 5 4 13 6 7 8 13 13 8 11 22 43 33 24 39 25 31 25 11
46 49 45 43 39 40 60 35 51 126 106 110 105 101 94 92 87 80 70 59 47 29 8 6 6 15 19 22 21 23 20 16 11 8 4 6 8 0 6 4 8 22 14 10 12 17 14 12 11 12 24 23 20 19
53 50 46 46 41 37 47 52 43 70 118 116 109 106 99 97 90 81 32 57 56 44 2 1 5 6 8 10 11 10 11 12 9 7 8 8 6 5 1 6 23 45 44 50 11 18 18 16 17 13 9 18 19 13
49 51 49 46 46 41 36 42 37 71 116 117 113 107 103 104 90 87 21 28 67 45 9 3 1 6 15 15 13 14 13 9 8 6 7 5 6 11 4 10 15 30 49 52 49 45 40 46 22 13 6 4 19 18
55 52 53 47 45 43 39 30 49 68 102 119 114 111 110 92 83 62 23 40 66 42 13 6 2 5 21 11 10 14 9 8 10 7 5 6 5 8 12 36 35 26 26 30 32 43 47 30 17 30 19 7 11 25
53 55 55 48 46 46 44 29 61 44 91 117 107 118 100 88 50 48 40 58 61 23 15 12 11 8 26 10 8 12 9 4 5 5 7 8 6 13 22 33 43 30 22 11 16 41 42 48 46 34 26 24 14 16
55 52 52 53 44 41 47 29 56 52 95 124 125 70 24 41 77 73 30 19 19 17 12 7 17 7 19 11 9 11 7 3 5 7 4 6 10 70 68 56 49 26 17 30 24 25 32 47 50 45 45 37 32 30
54 49 49 51 46 43 52 34 55 49 135 113 43 19 60 95 61 24 20 16 20 4 24 22 20 13 23 7 6 14 6 2 2 7 7 6 8 12 11 20 33 58 60 44 25 27 17 10 17 29 33 34 39 43
48 47 49 51 46 41 58 44 55 69 73 93 60 89 63 21 13 13 11 9 10 16 24 22 21 18 20 13 10 11 7 4 9 5 6 7 10 27 20 6 8 8 21 48 57 48 36 30 25 25 24 20 27 37
48 50 47 46 47 45 55 46 46 54 96 89 42 20 19 16 12 24 25 9 9 20 23 29 10 17 15 11 12 6 8 9 7 3 8 11 16 11 7 21 12 8 13 16 21 28 33 34 34 36 40 38 32 18
46 47 46 49 53 45 45 46 42 107 87 20 19 17 17 13 15 10 13 14 23 30 62 54 23 13 12 8 7 9 3 5 3 3 13 7 17 9 27 25 14 11 11 15 17 18 15 15 18 23 23 30 26 21
47 44 45 47 52 49 44 33 100 114 32 18 18 16 14 9 10 38 61 51 34 79 83 33 18 11 3 8 3 9 6 9 12 12 8 11 7 13 17 26 20 15 13 14 15 14 11 9 9 10 7 22 7 5
44 43 50 50 49 54 48 37 101 59 12 26 17 9 25 20 5 19 55 48 66 74 60 16 9 7 8 10 8 17 15 14 10 8 24 15 12 21 17 16 16 15 13 13 13 11 7 6 10 21 27 14 7 5
44 43 50 56 52 50 43 35 44 19 21 24 7 34 34 32 42 43 64 68 98 85 12 10 13 13 8 5 6 10 11 9 18 18 16 18 21 16 16 21 21 19 20 22 24 25 26 29 31 29 26 26 25 22
44 48 49 49 48 41 46 35 18 18 7 10 9 40 38 56 66 62 60 97 58 46 33 11 24 10 14 17 8 10 51 37 18 7 16 20 24 19 26 25 30 32 32 32 32 33 34 35 35 31 27 23 19 17
48 36 46 40 51 45 19 21 19 6 4 12 40 51 47 55 65 101 113 97 51 66 41 27 10 11 9 12 19 43 49 41 42 32 25 23 24 23 32 36 37 35 34 33 33 33 33 32 28 24 19 17 15 15
36 36 29 45 31 10 12 13 14 13 8 15 31 31 39 34 58 69 83 65 59 47 9 7 9 14 35 65 43 24 13 20 30 33 34 33 35 36 37 38 36 36 35 35 33 29 25 21 16 10 7 8 12 17
48 30 29 33 32 22 7 7 10 11 17 16 40 25 24 40 42 35 42 47 23 17 7 23 45 52 31 12 28 55 47 27 17 25 16 34 42 38 36 42 43 40 39 34 28 23 18 12 6 5 11 19 26 32
36 25 12 19 14 13 8 7 18 22 10 27 19 18 20 6 13 27 42 19 16 40 37 39 45 46 52 49 23 1 15 36 35 28 25 19 41 43 42 49 49 47 40 30 24 20 16 11 14 21 28 29 31 34
34 13 7 11 8 3 2 19 5 9 10 7 13 9 6 7 17 44 6 19 22 46 56 49 44 49 52 56 59 39 25 14 15 24 29 29 31 33 33 41 44 43 40 31 22 16 12 16 24 27 27 34 39 40
17 7 7 6 5 3 7 5 6 12 12 6 6 10 8 7 35 4 8 10 23 43 71 71 58 54 49 54 60 58 45 36 28 25 30 36 36 33 29 37 45 45 39 33 26 21 21 24 27 31 35 37 34 29
5 8 7 7 6 6 8 6 5 7 9 7 9 5 6 14 5 5 8 7 45 50 64 76 76 69 68 70 60 57 53 46 37 39 40 38 33 34 39 47 54 51 44 35 26 24 28 32 33 33 33 28 20 16
2 3 4 4 3 6 8 11 9 11 10 8 6 8 10 7 9 12 9 34 56 62 67 82 87 82 74 68 62 60 52 44 43 43 45 45 42 38 40 45 48 45 38 32 30 32 33 31 31 29 25 19 15 13
3 4 4 5 4 3 3 4 6 8 11 12 10 10 8 11 13 8 15 38 48 63 65 71 78 79 78 73 59 48 42 45 49 49 46 45 43 40 38 41 44 41 35 32 33 33 31 29 25 22 20 18 15 12
4 5 3 4 1 1 2 4 7 7 8 10 13 8 22 21 13 11 17 38 39 51 61 59 57 58 60 56 51 52 49 47 49 47 46 47 46 44 43 40 36 32 31 31 31 27 24 23 21 19 16 13 11 11
0 1 1 5 6 3 1 4 3 4 7 14 8 7 7 7 11 14 26 35 39 38 38 42 44 42 41 41 43 44 47 52 55 55 53 52 48 41 37 31 30 30 29 27 25 22 21 19 16 14 13 11 9 10
3 5 3 3 3 4 4 7 5 6 7 13 12 15 12 10 13 17 21 25 27 28 29 29 31 34 37 42 46 48 49 51 53 52 53 52 42 35 34 33 29 26 23 22 20 20 20 17 14 13 10 9 8 7
2 3 5 2 3 7 8 11 21 21 11 12 12 11 12 13 15 15 19 25 29 32 35 37 39 40 38 40 40 43 45 47 46 40 37 35 36 33 30 28 26 24 23 22 20 19 16 14 13 10 8 5 1 2
5 3 6 4 2 13 10 6 4 6 7 8 10 8 10 7 7 14 19 23 27 31 33 32 33 38 39 39 39 39 36 36 38 34 31 29 29 30 29 27 26 24 21 20 19 16 15 12 9 8 7 8 10 13
1 1 1 8 6 5 12 6 7 6 14 8 10 7 5 4 8 11 22 27 28 31 33 33 32 35 37 36 33 30 29 33 33 32 32 32 30 28 27 24 21 20 20 19 17 14 12 11 12 14 17 19 21 22
Wind_Direction_500mb
251 253 251 238 210 196 202 213 223 207 199 196 197 203 201 198 199 198 202 209 205 195 190 205 201 179 172 195 152 161 80 278 35 56 121 236 149 238 46 239 198 192 165 219 74 321 287 195 188 85 229 328 330 357
246 247 249 244 230 220 200 210 221 212 195 196 195 201 199 199 199 199 202 206 210 209 196 219 220 219 221 219 202 186 197 158 211 78 322 87 288 45 171 283 322 297 195 218 183 225 244 227 261 268 265 290 335 346
243 244 244 248 242 223 212 194 210 216 197 198 198 198 195 199 200 200 201 204 197 209 238 230 224 225 224 220 215 197 204 199 191 206 181 207 242 122 195 241 236 244 195 215 33 281 241 267 266 257 255 255 292 319
240 240 239 240 239 229 222 203 202 211 197 198 195 197 195 198 199 200 200 202 201 171 192 215 228 225 223 222 219 217 205 196 188 195 206 148 179 195 239 261 218 214 153 198 261 277 273 288 271 255 261 249 247 252
232 233 238 236 240 234 222 203 182 206 200 196 195 197 195 194 197 200 205 209 205 200 173 166 223 233 229 227 220 213 214 210 192 174 126 233 234 28 274 348 248 188 203 175 223 249 247 288 335 345 233 240 239 240
226 235 233 233 235 233 228 216 196 194 203 198 197 192 195 193 190 190 187 210 208 209 224 78 208 164 185 176 185 187 186 194 193 202 223 242 249 238 267 245 248 211 217 223 223 238 248 282 300 304 313 235 231 238
228 228 231 228 232 231 224 228 207 202 202 202 197 193 195 191 185 182 182 194 198 195 180 117 224 163 163 169 180 186 206 221 209 241 245 270 248 224 229 247 250 243 240 239 239 248 267 262 266 294 283 289 216 217
226 227 223 225 229 231 223 237 202 191 194 199 195 191 196 180 184 181 161 174 180 168 186 131 244 163 167 173 167 196 198 206 221 242 235 222 241 231 256 243 254 246 244 245 238 235 241 256 266 237 254 289 227 214
224 227 220 220 222 224 218 238 199 184 191 193 185 174 171 169 163 154 159 161 168 175 187 164 158 201 168 145 146 163 197 204 221 237 225 167 231 231 230 239 253 255 225 219 232 226 231 235 234 231 236 244 246 220
221 221 219 216 213 220 213 226 205 182 181 172 159 148 154 167 162 139 123 155 173 214 217 151 134 152 156 146 146 145 181 236 236 235 202 222 254 252 253 251 252 237 227 231 230 227 229 235 234 236 241 245 249 246
215 218 219 216 209 209 211 221 190 168 161 153 159 137 147 143 151 152 148 162 188 227 195 162 163 139 176 133 168 188 178 180 22 256 149 277 269 246 265 252 245 242 240 241 242 240 238 240 226 232 235 240 241 240
208 210 217 213 203 210 208 205 185 168 168 169 160 135 141 139 144 139 170 160 175 202 164 144 139 132 144 154 122 165 148 58 237 134 68 270 251 254 259 228 194 202 223 231 234 237 239 240 243 243 236 250 255 244
207 210 209 212 209 216 217 209 216 187 164 137 138 150 159 175 153 180 182 199 163 151 155 144 114 131 131 154 94 113 119 211 138 71 234 234 258 236 218 213 229 218 214 215 217 227 234 243 249 252 252 246 238 247
205 206 204 207 209 214 215 230 178 165 146 131 149 153 190 177 218 184 152 133 143 149 153 142 109 136 137 114 142 121 240 92 57 264 237 247 251 243 216 202 205 218 210 203 198 198 203 225 247 262 260 229 220 250
202 200 204 208 213 216 224 217 174 170 178 132 165 193 189 150 107 148 141 126 135 150 141 130 90 117 82 101 93 101 53 244 213 228 228 261 222 207 188 207 214 218 219 211 199 194 209 237 283 296 242 176 194 293
201 203 205 204 210 219 218 235 190 202 192 157 170 113 137 117 76 132 135 129 147 148 143 126 122 124 200 138 121 212 142 216 241 218 241 226 202 189 195 201 198 188 173 167 169 177 173 136 109 109 117 117 101 81
194 203 203 204 216 212 217 232 207 220 212 154 158 149 141 127 156 155 151 151 157 151 162 143 145 177 103 110 231 188 200 222 221 230 236 202 190 191 193 181 177 163 149 140 136 131 124 118 114 114 113 107 101 96
200 207 208 210 215 211 212 206 223 207 141 139 129 159 151 154 149 154 159 155 155 174 152 171 129 172 186 174 231 225 233 225 231 250 214 198 188 174 169 166 153 141 136 130 124 122 119 117 115 114 109 102 90 78
201 201 201 204 212 208 202 201 222 119 98 119 140 149 148 149 163 166 170 165 175 171 150 155 180 181 197 209 208 216 223 227 239 236 215 187 177 179 176 165 150 144 140 137 134 129 123 117 111 104 94 77 57 23
192 190 199 209 180 215 218 199 178 131 151 147 136 125 131 142 154 164 159 165 164 162 181 209 188 191 194 217 220 228 211 205 224 211 204 197 190 183 180 170 161 160 161 156 146 138 129 120 111 97 58 7 332 312
147 162 178 199 229 238 254 165 120 117 120 100 126 114 96 121 126 147 165 163 173 207 212 202 199 204 206 203 227 241 241 237 250 212 214 205 194 180 182 180 179 180 175 166 159 154 157 167 186 264 291 292 295 298
150 166 174 199 221 226 196 158 131 120 90 137 109 104 114 115 127 147 157 189 237 212 208 214 210 206 212 222 213 50 229 216 215 230 235 219 188 194 195 192 192 188 182 181 179 182 193 231 268 280 285 294 306 309
156 155 194 212 224 216 146 135 128 114 124 147 119 98 104 119 146 142 170 212 228 212 208 214 216 221 226 227 236 235 225 208 212 229 218 196 196 198 195 197 196 193 192 196 202 216 248 274 285 291 307 315 315 313
167 171 223 228 206 193 159 198 174 114 107 109 87 103 121 127 157 171 226 224 199 187 197 207 214 215 216 221 227 234 235 231 231 215 198 190 190 201 207 206 198 200 207 217 228 249 278 293 306 311 313 315 312 307
111 202 217 227 201 190 165 180 196 82 101 127 111 128 179 143 120 182 224 238 177 187 198 205 214 221 219 223 224 227 230 231 226 221 205 197 195 199 203 204 205 215 220 228 247 272 291 298 297 302 303 298 291 288
176 225 220 249 212 231 181 179 170 137 110 98 98 135 149 130 152 224 210 184 182 190 200 206 211 215 221 226 227 229 229 225 217 219 213 208 205 211 211 213 220 227 237 249 264 274 277 278 283 284 280 277 274 279
182 252 255 264 256 234 165 94 95 99 124 148 165 153 151 163 215 237 159 170 181 195 202 210 214 220 226 226 227 223 224 220 219 223 216 208 208 214 222 231 237 242 247 252 256 256 260 266 263 259 256 261 261 255
177 179 249 288 294 116 335 247 160 146 161 151 127 156 162 176 201 164 164 181 180 190 201 205 208 214 221 222 222 220 214 214 216 215 215 216 220 226 232 233 233 236 236 236 242 250 253 248 243 235 230 228 248 270
52 102 315 348 317 20 351 332 17 49 125 184 126 156 161 93 146 156 162 175 188 193 197 199 199 202 205 206 206 208 209 214 212 207 209 212 212 214 217 220 219 215 219 228 233 226 221 211 203 211 225 237 260 286
315 138 80 357 340 312 337 360 328 95 90 106 95 109 100 106 128 147 157 169 173 177 182 179 182 187 195 196 196 196 199 201 205 212 218 218 216 217 209 205 207 213 216 212 208 207 208 212 217 221 229 242 258 291
165 140 74 50 352 313 332 96 101 99 89 69 75 95 105 116 128 139 155 164 164 166 170 170 174 175 179 183 189 193 192 198 201 205 207 205 202 200 200 204 206 205 206 204 205 209 213 210 206 202 204 219 193 60
208 173 142 106 93 158 155 217 180 91 71 70 55 74 102 111 103 141 159 161 164 166 165 165 169 169 172 178 181 185 190 197 192 192 191 190 190 190 192 192 190 190 192 197 200 197 191 188 181 165 148 127 116 111
159 16 311 118 122 224 216 158 51 64 45 53 45 67 63 85 150 150 159 164 166 164 163 162 165 164 160 162 168 171 172 171 173 173 173 172 170 171 172 176 179 181 183 182 175 167 155 152 143 130 126 123 119 116
Wind_Speed_850mb
44 39 41 56 47 39 39 119 113 101 105 104 97 90 88 86 85 77 65 51 33 13 14 20 19 14 13 12 7 11 5 2 5 4 6 6 4 7 2 8 8 9 8 8 1 3 8 5 0 1 4 10 14 9
46 43 38 50 66 39 31 80 126 109 112 109 104 96 90 89 87 78 63 53 43 19 7 18 27 25 23 17 15 16 3 10 10 5 2 5 3 3 6 6 7 5 10 5 13 10 8 8 12 9 9 10 8 6
46 43 40 36 43 63 35 49 126 118 114 114 105 100 90 90 88 82 67 59 42 26 14 16 19 28 30 28 25 13 10 10 8 6 6 4 5 6 5 11 3 9 13 7 6 7 15 29 22 39 32 20 14 8
53 48 44 39 38 59 52 38 83 121 108 113 104 99 92 91 86 85 72 55 52 13 10 9 19 20 26 31 30 29 13 11 8 7 4 5 4 13 6 7 8 13 13 8 11 22 43 33 24 39 25 31 25 11
46 49 45 43 39 40 60 35 51 126 106 110 105 101 94 92 87 80 70 59 47 29 8 6 6 15 19 22 21 23 20 16 11 8 4 6 8 0 6 4 8 22 14 10 12 17 14 12 11 12 24 23 20 19
53 50 46 46 41 37 47 52 43 70 118 116 109 106 99 97 90 81 32 57 56 44 2 1 5 6 8 10 11 10 11 12 9 7 8 8 6 5 1 6 23 45 44 50 11 18 18 16 17 13 9 18 19 13
49 51 49 46 46 41 36 42 37 71 116 117 113 107 103 104 90 87 21 28 67 45 9 3 1 6 15 15 13 14 13 9 8 6 7 5 6 11 4 10 15 30 49 52 49 45 40 46 22 13 6 4 19 18
55 52 53 47 45 43 39 30 49 68 102 119 114 111 110 92 83 62 23 40 66 42 13 6 2 5 21 11 10 14 9 8 10 7 5 6 5 8 12 36 35 26 26 30 32 43 47 30 17 30 19 7 11 25
53 55 55 48 46 46 44 29 61 44 91 117 107 118 100 88 50 48 40 58 61 23 15 12 11 8 26 10 8 12 9 4 5 5 7 8 6 13 22 33 43 30 22 11 16 41 42 48 46 34 26 24 14 16
55 52 52 53 44 41 47 29 56 52 95 124 125 70 24 41 77 73 30 19 19 17 12 7 17 7 19 11 9 11 7 3 5 7 4 6 10 70 68 56 49 26 17 30 24 25 32 47 50 45 45 37 32 30
54 49 49 51 46 43 52 34 55 49 135 113 43 19 60 95 61 24 20 16 20 4 24 22 20 13 23 7 6 14 6 2 2 7 7 6 8 12 11 20 33 58 60 44 25 27 17 10 17 29 33 34 39 43
48 47 49 51 46 41 58 44 55 69 73 93 60 89 63 21 13 13 11 9 10 16 24 22 21 18 20 13 10 11 7 4 9 5 6 7 10 27 20 6 8 8 21 48 57 48 36 30 25 25 24 20 27 37
48 50 47 46 47 45 55 46 46 54 96 89 42 20 19 16 12 24 25 9 9 20 23 29 10 17 15 11 12 6 8 9 7 3 8 11 16 11 7 21 12 8 13 16 21 28 33 34 34 36 40 38 32 18
46 47 46 49 53 45 45 46 42 107 87 20 19 17 17 13 15 10 13 14 23 30 62 54 23 13 12 8 7 9 3 5 3 3 13 7 17 9 27 25 14 11 11 15 17 18 15 15 18 23 23 30 26 21
47 44 45 47 52 49 44 33 100 114 32 18 18 16 14 9 10 38 61 51 34 79 83 33 18 11 3 8 3 9 6 9 12 12 8 11 7 13 17 26 20 15 13 14 15 14 11 9 9 10 7 22 7 5
44 43 50 50 49 54 48 37 101 59 12 26 17 9 25 20 5 19 55 48 66 74 60 16 9 7 8 10 8 17 15 14 10 8 24 15 12 21 17 16 16 15 13 13 13 11 7 6 10 21 27 14 7 5
44 43 50 56 52 50 43 35 44 19 21 24 7 34 34 32 42 43 64 68 98 85 12 10 13 13 8 5 6 10 11 9 18 18 16 18 21 16 16 21 21 19 20 22 24 25 26 29 31 29 26 26 25 22
44 48 49 49 48 41 46 35 18 18 7 10 9 40 38 56 66 62 60 97 58 46 33 11 24 10 14 17 8 10 51 37 18 7 16 20 24 19 26 25 30 32 32 32 32 33 34 35 35 31 27 23 19 17
48 36 46 40 51 45 19 21 19 6 4 12 40 51 47 55 65 101 113 97 51 66 41 27 10 11 9 12 19 43 49 41 42 32 25 23 24 23 32 36 37 35 34 33 33 33 33 32 28 24 19 17 15 15
36 36 29 45 31 10 12 13 14 13 8 15 31 31 39 34 58 69 83 65 59 47 9 7 9 14 35 65 43 24 13 20 30 33 34 33 35 36 37 38 36 36 35 35 33 29 25 21 16 10 7 8 12 17
48 30 29 33 32 22 7 7 10 11 17 16 40 25 24 40 42 35 42 47 23 17 7 23 45 52 31 12 28 55 47 27 17 25 16 34 42 38 36 42 43 40 39 34 28 23 18 12 6 5 11 19 26 32
36 25 12 19 14 13 8 7 18 22 10 27 19 18 20 6 13 27 42 19 16 40 37 39 45 46 52 49 23 1 15 36 35 28 25 19 41 43 42 49 49 47 40 30 24 20 16 11 14 21 28 29 31 34
34 13 7 11 8 3 2 19 5 9 10 7 13 9 6 7 17 44 6 19 22 46 56 49 44 49 52 56 59 39 25 14 15 24 29 29 31 33 33 41 44 43 40 31 22 16 12 16 24 27 27 34 39 40
17 7 7 6 5 3 7 5 6 12 12 6 6 10 8 7 35 4 8 10 23 43 71 71 58 54 49 54 60 58 45 36 28 25 30 36 36 33 29 37 45 45 39 33 26 21 21 24 27 31 35 37 34 29
5 8 7 7 6 6 8 6 5 7 9 7 9 5 6 14 5 5 8 7 45 50 64 76 76 69 68 70 60 57 53 46 37 39 40 38 33 34 39 47 54 51 44 35 26 24 28 32 33 33 33 28 20 16
2 3 4 4 3 6 8 11 9 11 10 8 6 8 10 7 9 12 9 34 56 62 67 82 87 82 74 68 62 60 52 44 43 43 45 45 42 38 40 45 48 45 38 32 30 32 33 31 31 29 25 19 15 13
3 4 4 5 4 3 3 4 6 8 11 12 10 10 8 11 13 8 15 38 48 63 65 71 78 79 78 73 59 48 42 45 49 49 46 45 43 40 38 41 44 41 35 32 33 33 31 29 25 22 20 18 15 12
4 5 3 4 1 1 2 4 7 7 8 10 13 8 22 21 13 11 17 38 39 51 61 59 57 58 60 56 51 52 49 47 49 47 46 47 46 44 43 40 36 32 31 31 31 27 24 23 21 19 16 13 11 11
0 1 1 5 6 3 1 4 3 4 7 14 8 7 7 7 11 14 26 35 39 38 38 42 44 42 41 41 43 44 47 52 55 55 53 52 48 41 37 31 30 30 29 27 25 22 21 19 16 14 13 11 9 10
3 5 3 3 3 4 4 7 5 6 7 13 12 15 12 10 13 17 21 25 27 28 29 29 31 34 37 42 46 48 49 51 53 52 53 52 42 35 34 33 29 26 23 22 20 20 20 17 14 13 10 9 8 7
2 3 5 2 3 7 8 11 21 21 11 12 12 11 12 13 15 15 19 25 29 32 35 37 39 40 38 40 40 43 45 47 46 40 37 35 36 33 30 28 26 24 23 22 20 19 16 14 13 10 8 5 1 2
5 3 6 4 2 13 10 6 4 6 7 8 10 8 10 7 7 14 19 23 27 31 33 32 33 38 39 39 39 39 36 36 38 34 31 29 29 30 29 27 26 24 21 20 19 16 15 12 9 8 7 8 10 13
1 1 1 8 6 5 12 6 7 6 14 8 10 7 5 4 8 11 22 27 28 31 33 33 32 35 37 36 33 30 29 33 33 32 32 32 30 28 27 24 21 20 20 19 17 14 12 11 12 14 17 19 21 22
Wind_Direction_850mb
251 253 251 238 210 196 202 213 223 207 199 196 197 203 201 198 199 198 202 209 205 195 190 205 201 179 172 195 152 161 80 278 35 56 121 236 149 238 46 239 198 192 165 219 74 321 287 195 188 85 229 328 330 357
246 247 249 244 230 220 200 210 221 212 195 196 195 201 199 199 199 199 202 206 210 209 196 219 220 219 221 219 202 186 197 158 211 78 322 87 288 45 171 283 322 297 195 218 183 225 244 227 261 268 265 290 335 346
243 244 244 248 242 223 212 194 210 216 197 198 198 198 195 199 200 200 201 204 197 209 238 230 224 225 224 220 215 197 204 199 191 206 181 207 242 122 195 241 236 244 195 215 33 281 241 267 266 257 255 255 292 319
240 240 239 240 239 229 222 203 202 211 197 198 195 197 195 198 199 200 200 202 201 171 192 215 228 225 223 222 219 217 205 196 188 195 206 148 179 195 239 261 218 214 153 198 261 277 273 288 271 255 261 249 247 252
232 233 238 236 240 234 222 203 182 206 200 196 195 197 195 194 197 200 205 209 205 200 173 166 223 233 229 227 220 213 214 210 192 174 126 233 234 28 274 348 248 188 203 175 223 249 247 288 335 345 233 240 239 240
226 235 233 233 235 233 228 216 196 194 203 198 197 192 195 193 190 190 187 210 208 209 224 78 208 164 185 176 185 187 186 194 193 202 223 242 249 238 267 245 248 211 217 223 223 238 248 282 300 304 313 235 231 238
228 228 231 228 232 231 224 228 207 202 202 202 197 193 195 191 185 182 182 194 198 195 180 117 224 163 163 169 180 186 206 221 209 241 245 270 248 224 229 247 250 243 240 239 239 248 267 262 266 294 283 289 216 217
226 227 223 225 229 231 223 237 202 191 194 199 195 191 196 180 184 181 161 174 180 168 186 131 244 163 167 173 167 196 198 206 221 242 235 222 241 231 256 243 254 246 244 245 238 235 241 256 266 237 254 289 227 214
224 227 220 220 222 224 218 238 199 184 191 193 185 174 171 169 163 154 159 161 168 175 187 164 158 201 168 145 146 163 197 204 221 237 225 167 231 231 230 239 253 255 225 219 232 226 231 235 234 231 236 244 246 220
221 221 219 216 213 220 213 226 205 182 181 172 159 148 154 167 162 139 123 155 173 214 217 151 134 152 156 146 146 145 181 236 236 235 202 222 254 252 253 251 252 237 227 231 230 227 229 235 234 236 241 245 249 246
215 218 219 216 209 209 211 221 190 168 161 153 159 137 147 143 151 152 148 162 188 227 195 162 163 139 176 133 168 188 178 180 22 256 149 277 269 246 265 252 245 242 240 241 242 240 238 240 226 232 235 240 241 240
208 210 217 213 203 210 208 205 185 168 168 169 160 135 141 139 144 139 170 160 175 202 164 144 139 132 144 154 122 165 148 58 237 134 68 270 251 254 259 228 194 202 223 231 234 237 239 240 243 243 236 250 255 244
207 210 209 212 209 216 217 209 216 187 164 137 138 150 159 175 153 180 182 199 163 151 155 144 114 131 131 154 94 113 119 211 138 71 234 234 258 236 218 213 229 218 214 215 217 227 234 243 249 252 252 246 238 247
205 206 204 207 209 214 215 230 178 165 146 131 149 153 190 177 218 184 152 133 143 149 153 142 109 136 137 114 142 121 240 92 57 264 237 247 251 243 216 202 205 218 210 203 198 198 203 225 247 262 260 229 220 250
202 200 204 208 213 216 224 217 174 170 178 132 165 193 189 150 107 148 141 126 135 150 141 130 90 117 82 101 93 101 53 244 213 228 228 261 222 207 188 207 214 218 219 211 199 194 209 237 283 296 242 176 194 293
201 203 205 204 210 219 218 235 190 202 192 157 170 113 137 117 76 132 135 129 147 148 143 126 122 124 200 138 121 212 142 216 241 218 241 226 202 189 195 201 198 188 173 167 169 177 173 136 109 109 117 117 101 81
194 203 203 204 216 212 217 232 207 220 212 154 158 149 141 127 156 155 151 151 157 151 162 143 145 177 103 110 231 188 200 222 221 230 236 202 190 191 193 181 177 163 149 140 136 131 124 118 114 114 113 107 101 96
200 207 208 210 215 211 212 206 223 207 141 139 129 159 151 154 149 154 159 155 155 174 152 171 129 172 186 174 231 225 233 225 231 250 214 198 188 174 169 166 153 141 136 130 124 122 119 117 115 114 109 102 90 78
201 201 201 204 212 208 202 201 222 119 98 119 140 149 148 149 163 166 170 165 175 171 150 155 180 181 197 209 208 216 223 227 239 236 215 187 177 179 176 165 150 144 140 137 134 129 123 117 111 104 94 77 57 23
192 190 199 209 180 215 218 199 178 131 151 147 136 125 131 142 154 164 159 165 164 162 181 209 188 191 194 217 220 228 211 205 224 211 204 197 190 183 180 170 161 160 161 156 146 138 129 120 111 97 58 7 332 312
147 162 178 199 229 238 254 165 120 117 120 100 126 114 96 121 126 147 165 163 173 207 212 202 199 204 206 203 227 241 241 237 250 212 214 205 194 180 182 180 179 180 175 166 159 154 157 167 186 264 291 292 295 298
150 166 174 199 221 226 196 158 131 120 90 137 109 104 114 115 127 147 157 189 237 212 208 214 210 206 212 222 213 50 229 216 215 230 235 219 188 194 195 192 192 188 182 181 179 182 193 231 268 280 285 294 306 309
156 155 194 212 224 216 146 135 128 114 124 147 119 98 104 119 146 142 170 212 228 212 208 214 216 221 226 227 236 235 225 208 212 229 218 196 196 198 195 197 196 193 192 196 202 216 248 274 285 291 307 315 315 313
167 171 223 228 206 193 159 198 174 114 107 109 87 103 121 127 157 171 226 224 199 187 197 207 214 215 216 221 227 234 235 231 231 215 198 190 190 201 207 206 198 200 207 217 228 249 278 293 306 311 313 315 312 307
111 202 217 227 201 190 165 180 196 82 101 127 111 128 179 143 120 182 224 238 177 187 198 205 214 221 219 223 224 227 230 231 226 221 205 197 195 199 203 204 205 215 220 228 247 272 291 298 297 302 303 298 291 288
176 225 220 249 212 231 181 179 170 137 110 98 98 135 149 130 152 224 210 184 182 190 200 206 211 215 221 226 227 229 229 225 217 219 213 208 205 211 211 213 220 227 237 249 264 274 277 278 283 284 280 277 274 279
182 252 255 264 256 234 165 94 95 99 124 148 165 153 151 163 215 237 159 170 181 195 202 210 214 220 226 226 227 223 224 220 219 223 216 208 208 214 222 231 237 242 247 252 256 256 260 266 263 259 256 261 261 255
177 179 249 288 294 116 335 247 160 146 161 151 127 156 162 176 201 164 164 181 180 190 201 205 208 214 221 222 222 220 214 214 216 215 215 216 220 226 232 233 233 236 236 236 242 250 253 248 243 235 230 228 248 270
52 102 315 348 317 20 351 332 17 49 125 184 126 156 161 93 146 156 162 175 188 193 197 199 199 202 205 206 206 208 209 214 212 207 209 212 212 214 217 220 219 215 219 228 233 226 221 211 203 211 225 237 260 286
315 138 80 357 340 312 337 360 328 95 90 106 95 109 100 106 128 147 157 169 173 177 182 179 182 187 195 196 196 196 199 201 205 212 218 218 216 217 209 205 207 213 216 212 208 207 208 212 217 221 229 242 258 291
165 140 74 50 352 313 332 96 101 99 89 69 75 95 105 116 128 139 155 164 164 166 170 170 174 175 179 183 189 193 192 198 201 205 207 205 202 200 200 204 206 205 206 204 205 209 213 210 206 202 204 219 193 60
208 173 142 106 93 158 155 217 180 91 71 70 55 74 102 111 103 141 159 161 164 166 165 165 169 169 172 178 181 185 190 197 192 192 191 190 190 190 192 192 190 190 192 197 200 197 191 188 181 165 148 127 116 111
159 16 311 118 122 224 216 158 51 64 45 53 45 67 63 85 150 150 159 164 166 164 163 162 165 164 160 162 168 171 172 171 173 173 173 172 170 171 172 176 179 181 183 182 175 167 155 152 143 130 126 123 119 116